Вернуться в каталог

DELTA 1 DEB

АктивенPO
NORAD 21442·DEBRIS·🇺🇸 United States

Запущен Jun 12, 1975 с Vandenberg Space Force Base

Loading…

Ближайшие Пролёты (ближайшие 24 часа)

TLE

СвежийSource: Space-Track

Эпоха: Sep 12, 2026, 15:12 UTC

1 21442U 75052EA  26255.63379955  .00004220  00000-0  86258-2 0  9998
2 21442  99.4811 140.8996 0339002  27.7410   1.8623 13.14173499650869

Отслеживайте DELTA 1 DEB в реальном времени с AllMySat

Download on the App Store